Hourly Data Report for October 21, 2012

All times are specified in Local Standard Time (LST). Add 1 hour to adjust for Daylight Saving Time where and when it is observed.

IQALUIT CLIMATE
NUNAVUT

63°44'50.000" N
68°32'40.000" W
33.50 m
2402592
71321
XFB

Download Data

Hourly Data (October 2012)
Hourly Data Report for October 21, 2012
Temp Definition
°C
Dew Point Temp Definition
°C
Rel Hum Definition
%
Wind Dir Definition
10's deg

Wind Spd Definition
km/h
Visibility Definition
km
Stn Press Definition
kPa
Hmdx Definition


Wind Chill Definition


Weather Definition


TIME
00:00 -11.4 -13.2 86 32 13   102.23   -18 LegendNANA
01:00 -11.4 -13.2 86 32 17   102.21   -19 LegendNANA
02:00 -7.3 -10.0 81 35 15   102.22   -13 LegendNANA
03:00 -10.6 -13.0 82 33 15   102.24   -17 LegendNANA
04:00 -9.4 -11.7 83 31 6   102.26   -13 LegendNANA
05:00 -7.8 -10.7 80 3 9   102.27   -12 LegendNANA
06:00 -8.7 -11.1 83 31 9   102.28   -13 LegendNANA
07:00 -11.3 -13.0 87 34 20   102.27   -20 LegendNANA
08:00 -10.9 -12.7 87 33 28   102.28   -20 LegendNANA
09:00 -10.6 -12.6 85 32 24   102.26   -19 LegendNANA
10:00 -5.5 -8.9 77 2 11   102.22   -10 LegendNANA
11:00 -4.8 -8.3 76 35 9   102.22   -9 LegendNANA
12:00 -7.7 -9.9 84 33 24   102.21   -16 LegendNANA
13:00 -7.8 -9.9 85 32 19   102.20   -15 LegendNANA
14:00 -3.1 -6.4 78 3 13   102.18   -8 LegendNANA
15:00 -3.4 -6.7 78 34 11   102.21   -8 LegendNANA
16:00 -4.9 -8.0 79 6 15   102.23   -10 LegendNANA
17:00 -5.2 -7.9 81 6 22   102.24   -12 LegendNANA
18:00 -6.7 -9.2 82 31 11   102.26   -12 LegendNANA
19:00 -6.4 -9.2 80 32 9   102.26   -11 LegendNANA
20:00 -6.3 -8.4 85 31 7   102.24   -10 LegendNANA
21:00 -6.2 -9.2 79 5 7   102.24   -10 LegendNANA
22:00 -6.0 -9.2 78 6 13   102.24   -11 LegendNANA
23:00 -6.3 -9.5 78 10 4   102.24   -8 LegendNANA

Notes on Data Quality.

Legend

  • E = Estimated
  • M = Missing
  • NA = Not Available
  • ‡ = Partner data that is not subject to review by the National Climate Archives
Date modified: